www.pogodaiklimat.ru

Погода и климат >> Архив погоды >> Монголия >> Галуут


ПОГОДА в Галууте

  • Прогноз погоды в Галууте
  • Монитор погоды в Галууте

АРХИВ ПОГОДЫ в Галууте

Время (UTC), дата Ветер
(напр.,м/с)
 
Видим.   Явления Облачность Т
(С)
Тd
(С)
f
(%)
Тe
(С)
Тes
(С)
Комфортность P
(гПа)
Po
(гПа)
Тmin
(С)
Tmax
(С)
R
(мм)
R24
(мм)
S
(см)
12 12.09 З 3 50 км 4/1 1000 м
[Cu hum Ac cast]
+8.1 -10.1 26 +6 +6 1017.6 786.6 +12.1
15 12.09 СЗ 6 н/о 9/0 2000 м
[Ac und Ci fib]
+6.0 -6.6 40 +2 +2 1020.9 787.6
18 12.09 СВ 4 н/о 10/0 2000 м
[As op]
+4.1 -4.6 53 0 0 1022.2 787.2
21 12.09 СВ 2 н/о 4/0 2000 м
[Ac lent]
+0.2 -5.6 65 -3 -3 1026.3 787.4
00 13.09 штиль 0 50 км ясно +1.2 -3.9 69 0 +1 1026.7 788.5 -2.9
03 13.09 СЗ 3 50 км 1/1 1000 м
[Cu hum]
+6.1 -5.7 42 +4 +9 1022.8 789.1
06 13.09 З 4 50 км ясно +9.8 -9.1 25 +8 +15 1017.9 788.0
09 13.09 ЮЗ 3 50 км ясно +11.8 -12.0 18 +11 +14 1014.2 786.6
12 13.09 ЮЗ 1 50 км ясно +8.2 -9.0 29 +8 +8 1017.2 786.3 +12.1
15 13.09 штиль 0 50 км 3/0 2000 м
[Ac lent Ci]
+3.9 -12.0 30 +4 +4 1022.5 787.2
18 13.09 С 2 50 км ясно -0.1 -10.4 46 -3 -3 1026.2 787.1
21 13.09 С 2 50 км ясно -2.5 -10.0 56 -6 -6 1027.3 786.1
00 14.09 штиль 0 50 км 3/0 2000 м
[Ac lent]
-0.2 -8.5 54 -1 -0 1025.5 786.5 -3.1
03 14.09 ЮЗ 2 50 км 8/0 2000 м
[Ac und Ci]
+8.7 -9.8 26 +8 +12 1017.1 786.6
06 14.09 З 6 50 км 9/3 1000 м
[Cu med, cong Ac As]
+10.1 -9.2 25 +7 +9 1015.1 786.1
09 14.09 СЗ 6
{13}
50 км 9/8 1000 м
[Sc Ci sp]
+10.9 -9.9 22 +9 +9 1013.0 785.0
12 14.09 С 4 50 км 6/6 600 м
[Sc]
+7.9 -7.9 32 +5 +5 1018.1 786.8 +12.4
15 14.09 С 4 50 км 1/0 2000 м
[Ac lent]
+5.2 -7.3 40 +2 +2 1023.5 789.0
18 14.09 С 4 50 км 1/0 2000 м
[Ac lent]
+2.5 -7.6 47 -2 -2 1027.3 789.9
21 14.09 С 2 50 км ясно -3.2 -8.1 69 -7 -7 1032.8 789.8
00 15.09 СВ 1 50 км 1/0
[Ci]
-1.9 -7.8 64 -4 -3 1033.5 791.3 -4.4
03 15.09 Ю 2 50 км ясно +5.9 -7.2 38 +4 +12 1025.9 791.4
06 15.09 ЮЗ 3 50 км 1/1 1000 м
[Cu hum]
+10.8 -13.0 17 +10 +18 1019.3 789.8
09 15.09 З 3 50 км 3/3 1000 м
[Cu med, cong]
+11.7 -12.1 18 +11 +13 1016.8 788.5
12 15.09 С 1 50 км 3/3 1000 м
[Cu med, cong]
+4.8 -8.6 37 +4 +4 1023.1 788.4 +12.4
15 15.09 С 2 50 км ясно +1.6 -9.8 42 -1 -1 1027.2 789.2
18 15.09 С 2 50 км ясно -0.3 -9.7 49 -3 -3 1028.7 788.9
21 15.09 штиль 0 50 км ясно -3.7 -9.7 63 -4 -4 1031.9 788.7
00 16.09 штиль 0 50 км ясно -0.8 -8.5 56 -1 -1 1029.9 789.4 -4.7
03 16.09 ЮЗ 2 50 км ясно +8.5 -8.7 29 +7 +15 1021.3 789.7
06 16.09 З 5 50 км 1/1
[Cu hum]
+12.0 -10.3 20 +10 +15 1016.8 788.7
09 16.09 З 3 50 км 3/3 1000 м
[Cu med, cong]
+13.7 -13.2 14 +13 +15 1014.2 787.9
12 16.09 С 3
{11}
50 км 1/1 1000 м
[Cu hum]
+8.1 -9.0 29 +6 +6 1021.0 789.2 +14.0
15 16.09 СВ 4 50 км ясно +7.7 -8.1 32 +5 +5 1025.1 792.1
18 16.09 З 1 50 км ясно +2.8 -7.6 46 +2 +2 1031.4 793.3
21 16.09 ЮЗ 2 50 км ясно +1.2 -7.2 53 -2 -2 1033.6 793.8
00 17.09 штиль 0 50 км ясно +0.6 -7.1 56 0 +1 1036.4 795.5 -2.5
03 17.09 Ю 1 50 км ясно +9.4 -7.2 30 +10 +18 1029.4 796.6
06 17.09 З 4 50 км 3/3 1000 м
[Cu hum Ci]
+13.8 -7.8 22 +13 +18 1024.2 795.7
09 17.09 ЮЗ 3 50 км 4/1 1000 м
[Cu hum Ci fib]
+14.3 -10.3 17 +14 +16 1022.6 794.8
12 17.09 СВ 2 50 км 3/0 2000 м
[Ac lent Ci]
+6.8 -8.2 33 +5 +5 1029.7 795.0 +14.8
15 17.09 С 2 50 км 1/0 2000 м
[Ac lent]
+3.8 -9.1 38 +2 +2 1034.2 796.2
18 17.09 штиль 0 н/о 6/0 2000 м
[Ac lent Ci]
+4.2 -8.8 38 +4 +4 1033.7 796.1
21 17.09 СВ 3 50 км 3/0 2000 м
[Ac lent Ci]
+3.2 -7.8 44 0 0 1034.1 795.7
00 18.09 штиль 0 50 км 8/0 2000 м
[Ac As]
+1.1 -7.2 54 +1 +1 1036.7 796.1 +0.3
03 18.09 З 1 50 км 9/1 1000 м
[Cu hum As trans]
+10.8 -8.5 25 +11 +15 1027.7 796.3
06 18.09 З 4 50 км 8/1 1000 м
[Cu hum Ac As Ci fib]
+13.8 -8.6 20 +13 +17 1023.0 794.8
09 18.09 З 4
{11}
50 км 9/5 600 м
[Sc Ac As]
+14.4 -6.6 23 +13 +14 1020.8 793.5
12 18.09 СЗ 5 н/о 10/10 600 м
[Sc]
+12.5 -6.5 26 +11 +11 1022.5 793.5 +14.7
15 18.09 СЗ 5 н/о 9/9 600 м
[Sc]
+10.1 -2.2 42 +8 +8 1025.5 794.1
18 18.09 С 2 н/о 8/8 600 м
[Sc]
+8.3 -1.8 49 +7 +7 1026.2 793.4
21 18.09 В 5 н/о 9/9 600 м
[Sc]
+8.7 -1.9 47 +6 +6 1025.1 792.8
00 19.09 В 4 50 км 8/5 600 м
[Sc Ac As]
+7.0 -0.1 61 +4 +4 1028.4 794.1 +6.6
03 19.09 СЗ 1 50 км 4/4 600 м
[Sc]
+10.8 -0.6 45 +11 +16 1025.5 794.6
06 19.09 З 2 50 км 5/5 1000 м
[Cu med, cong]
+13.8 -2.7 32 +14 +19 1021.5 793.6
09 19.09 З 4 50 км 3/3 1000 м
[Cu med, cong]
+15.9 -4.3 25 +15 +17 1018.7 792.9

 

Местоположение метеостанции Галуут (Монголия): широта 46.70 долгота 100.13 высота над уровнем моря 2126 м.

В архиве по умолчанию представлена погода в Галууте за последнюю неделю. Архивные данные за месяц целиком и за предыдущие месяцы, начиная с января 2011 года, Вы можете получить, выбрав интересующий диапазон дат из раскрывающегося списка и нажав кнопку "Ввод!".


*Определитесь, кто Вы:
робот инопланетянин человек

Внимание! Время в таблицах - всемирное. Для получения местного времени необходимо прибавить поправку, которая равна 8 ч.

Смотрите также архив погоды в соседних городах и на ближайших метеорологических станциях:

Погода в Баянхонгоре (Монголия) (76 км)
Погода в Цэцэрлэге (Монголия) (131 км)
Погода в Баянбулаге (Монголия) (157 км)
Погода в Тариате (Монголия) (160 км)
Погода в Хужирте (Монголия) (201 км)
Погода в Арвайхээре (Монголия) (208 км)
Погода в Эрдэнэмандале (Монголия) (224 км)
Погода в Эрдэни (Монголия) (251 км)
Погода в Амарбуйантайане (Монголия) (257 км)
Погода в Тосонцэнгэле (Монголия) (268 км)

Пояснения к столбцам:

Ветер - указаны скорость ветра в м/с - средняя за 10 мин, порывы в срок и между сроками (в фигурных скобках) и направление, откуда дует ветер: С - северный, СВ - северо-восточный, В - восточный, ЮВ - юго-восточный, Ю - южный, ЮЗ - юго-западный, З - западный, СЗ - северо-западный.
Видимость - горизонтальная дальность видимости в метрах или километрах. При видимости от 1 до 10 км при отсутствии осадков обычно наблюдается дымка, при ухудшении видимости до 1 км и менее - туман. В сухую погоду видимость может ухудшаться дымом, пылью или мглою.
Явления - указаны атмосферные явления, наблюдавшиеся в срок или в последний час перед сроком; фигурными скобками обозначены явления, наблюдавшиеся между сроками (за 1-3 часа до срока); квадратными скобками обозначены град или гололедные отложения с указанием их диаметра в мм.
Облачность - указаны через наклонную черту общая и нижняя облачность в баллах и высота нижней границы облаков в метрах; квадратными скобками обозначены формы облаков: Ci - перистые, Cs - перисто-слоистые, Cc - перисто-кучевые, Ac - высококучевые, As - высокослоистые, Sc - слоисто-кучевые, Ns - слоисто-дождевые, Cu - кучевые, Cb - кучево-дождевые. Подробнее классификацию облаков см. в Атласе облаков (PDF).
T - Температура воздуха - температура, измеренная на высоте 2 м над землей.
Td - Температура точки росы - температура, при понижении до которой содержащийся в воздухе водяной пар достигнет насыщения.
f - Относительная влажность воздуха - влажноcть воздуха, измеренная на высоте 2 м над землей.
Te - Эффективная температура - температура, которую ощущает одетый по сезону человек в тени. Характеристика душности погоды. При расчете учитывается влияние влажности воздуха и скорости ветра на теплоощущения человека.
Tes - Эффективная температура на солнце - температура, которую ощущает человек, с поправкой на солнечный нагрев. Характеристика знойности погоды. Зависит от высоты солнца над горизонтом, облачности и скорости ветра. Ночью, в пасмурную погоду, а также при ветре 12 м/с и более поправка равна нулю.
P - Атмосферное давление - приведенное к уровню моря атмосферное давление.
Po - Атмосферное давление - измеренное на уровне метеостанции атмосферное давление.
Tmin - Минимальная температура - минимум температуры воздуха на высоте 2 м над землей.
Tmax - Максимальная температура - максимум температуры воздуха на высоте 2 м над землей.
R - Количество осадков - Количество выпавших осадков за период времени, мм. При наведении курсора мыши на число - период времени, за который выпало указанное количество осадков.
R24 - Количество осадков - Количество выпавших осадков за 24 часа, мм.
S - Снежный покров - Высота снежного покрова, см. При наведении курсора мыши на число - состояние снежного покрова и степень покрытия местности в баллах.